FW4433 Weather Reports


Display with metric or nautical units.
time (UTC)temp
F
wind
direction
speed
MPH
gust
MPH
rain 1hr
in
rain 24hr
in
rain mn
in
humidity
%
barometer
mb
20260906230537 97 139 2.0 5.0 0.00 0.00 0.00 32 1009.6
20260906230033 98 172 1.0 5.0 0.00 0.00 0.00 32 1009.7
20260906225531 98 238 2.0 5.0 0.00 0.00 0.00 31 1009.6
20260906225031 98 350 0.0 7.0 0.00 0.00 0.00 31 1009.6
20260906224539 98 164 2.0 7.0 0.00 0.00 0.00 31 1009.7
20260906224029 99 165 2.0 6.0 0.00 0.00 0.00 30 1009.7
20260906223529 98 104 3.0 6.0 0.00 0.00 0.00 30 1009.8
20260906223029 98 161 0.0 7.0 0.00 0.00 0.00 31 1009.7
20260906222527 98 150 3.0 7.0 0.00 0.00 0.00 31 1009.8
20260906222027 98 148 2.0 7.0 0.00 0.00 0.00 31 1009.9
20260906221627 98 311 0.0 9.0 0.00 0.00 0.00 31 1009.9
20260906221024 98 151 0.0 9.0 0.00 0.00 0.00 31 1009.8
20260906220524 98 135 3.0 7.0 0.00 0.00 0.00 30 1009.7
20260906220024 98 165 1.0 7.0 0.00 0.00 0.00 31 1009.7
20260906215523 98 181 1.0 8.0 0.00 0.00 0.00 30 1009.7
20260906215023 98 44 1.0 8.0 0.00 0.00 0.00 31 1009.8
20260906214525 98 152 1.0 6.0 0.00 0.00 0.00 31 1009.7
20260906214020 98 207 1.0 12.0 0.00 0.00 0.00 31 1009.8
20260906213520 98 127 3.0 12.0 0.00 0.00 0.00 30 1009.8
20260906213019 98 226 1.0 6.0 0.00 0.00 0.00 30 1009.9
20260906212517 99 136 1.0 6.0 0.00 0.00 0.00 31 1010.0
20260906212017 98 122 1.0 6.0 0.00 0.00 0.00 30 1010.0
20260906211614 98 148 3.0 8.0 0.00 0.00 0.00 31 1010.2
20260906211016 98 157 3.0 8.0 0.00 0.00 0.00 30 1010.3
20260906210515 98 153 2.0 8.0 0.00 0.00 0.00 30 1010.4
20260906210013 98 200 2.0 8.0 0.00 0.00 0.00 30 1010.5
20260906205512 98 207 0.0 7.0 0.00 0.00 0.00 31 1010.6
20260906205012 98 209 1.0 8.0 0.00 0.00 0.00 31 1010.8
20260906204511 98 173 1.0 8.0 0.00 0.00 0.00 31 1010.7
20260906204011 98 167 2.0 7.0 0.00 0.00 0.00 30 1010.9
20260906203509 99 7 1.0 7.0 0.00 0.00 0.00 31 1010.9
20260906203009 99 15 2.0 7.0 0.00 0.00 0.00 32 1010.9
20260906202505 99 222 4.0 8.0 0.00 0.00 0.00 31 1011.0
20260906202004 98 136 2.0 5.0 0.00 0.00 0.00 31 1011.1
20260906201505 98 142 3.0 7.0 0.00 0.00 0.00 32 1011.1
20260906201003 98 141 2.0 7.0 0.00 0.00 0.00 32 1011.1
20260906200502 98 257 3.0 7.0 0.00 0.00 0.00 32 1011.2
20260906200003 98 99 1.0 8.0 0.00 0.00 0.00 32 1011.1
20260906195503 97 136 3.0 9.0 0.00 0.00 0.00 33 1011.2
20260906195000 97 27 1.0 9.0 0.00 0.00 0.00 32 1011.4
20260906194600 98 181 3.0 10.0 0.00 0.00 0.00 32 1011.3
20260906194059 98 91 3.0 10.0 0.00 0.00 0.00 32 1011.4
20260906193559 98 166 2.0 8.0 0.00 0.00 0.00 32 1011.4
20260906193102 98 183 3.0 8.0 0.00 0.00 0.00 34 1011.5
20260906192555 97 184 1.0 7.0 0.00 0.00 0.00 34 1011.5
20260906192055 97 128 2.0 7.0 0.00 0.00 0.00 35 1011.5
20260906191556 97 176 2.0 7.0 0.00 0.00 0.00 35 1011.6
20260906190555 97 255 1.0 9.0 0.00 0.00 0.00 35 1011.7
20260906190055 97 305 2.0 7.0 0.00 0.00 0.00 35 1011.9
20260906185555 97 146 0.0 6.0 0.00 0.00 0.00 34 1011.8
20260906185052 97 140 1.0 7.0 0.00 0.00 0.00 35 1011.9
20260906184554 97 195 3.0 8.0 0.00 0.00 0.00 35 1011.9
20260906184049 97 141 1.0 8.0 0.00 0.00 0.00 36 1012.0
20260906183547 97 191 1.0 7.0 0.00 0.00 0.00 36 1012.1
20260906183049 97 202 3.0 7.0 0.00 0.00 0.00 35 1012.1
20260906182544 97 140 2.0 9.0 0.00 0.00 0.00 36 1012.2
20260906182045 97 155 5.0 9.0 0.00 0.00 0.00 36 1012.3
20260906181549 97 238 2.0 6.0 0.00 0.00 0.00 35 1012.3
20260906180541 97 159 1.0 5.0 0.00 0.00 0.00 36 1012.5
20260906180100 97 200 1.0 6.0 0.00 0.00 0.00 36 1012.6
20260906175537 97 29 1.0 6.0 0.00 0.00 0.00 36 1012.7
20260906175037 97 155 1.0 8.0 0.00 0.00 0.00 37 1012.6
20260906174536 96 93 2.0 7.0 0.00 0.00 0.00 37 1012.7
20260906174031 96 203 1.0 5.0 0.00 0.00 0.00 37 1012.8
20260906173529 96 211 1.0 6.0 0.00 0.00 0.00 37 1012.9
20260906173030 96 141 2.0 7.0 0.00 0.00 0.00 37 1013.0
20260906172525 96 150 2.0 7.0 0.00 0.00 0.00 38 1013.2
20260906172024 95 22 0.0 4.0 0.00 0.00 0.00 39 1013.1
20260906171522 94 188 1.0 5.0 0.00 0.00 0.00 40 1013.3
20260906170524 94 345 2.0 6.0 0.00 0.00 0.00 39 1013.4
20260906170022 94 306 1.0 8.0 0.00 0.00 0.00 40 1013.3
20260906165524 94 155 3.0 9.0 0.00 0.00 0.00 39 1013.4
20260906165020 95 154 3.0 7.0 0.00 0.00 0.00 39 1013.4
20260906164518 94 154 0.0 5.0 0.00 0.00 0.00 42 1013.5
20260906164016 94 342 1.0 7.0 0.00 0.00 0.00 41 1013.5
20260906163514 93 212 1.0 5.0 0.00 0.00 0.00 42 1013.5
20260906163012 93 262 1.0 5.0 0.00 0.00 0.00 41 1013.5
20260906162513 93 146 1.0 8.0 0.00 0.00 0.00 42 1013.5
20260906162013 93 153 2.0 8.0 0.00 0.00 0.00 43 1013.6
20260906161512 92 150 1.0 7.0 0.00 0.00 0.00 45 1013.5
20260906160510 92 173 3.0 7.0 0.00 0.00 0.00 45 1013.4
20260906160014 91 134 2.0 6.0 0.00 0.00 0.00 46 1013.5
20260906155507 91 210 1.0 6.0 0.00 0.00 0.00 47 1013.4
20260906155010 91 146 1.0 5.0 0.00 0.00 0.00 46 1013.5
20260906154505 91 150 3.0 6.0 0.00 0.00 0.00 47 1013.4
20260906154004 91 179 2.0 6.0 0.00 0.00 0.00 48 1013.3
20260906153501 91 155 0.0 4.0 0.00 0.00 0.00 50 1013.3
20260906153100 91 51 1.0 4.0 0.00 0.00 0.00 50 1013.4
20260906152600 90 272 0.0 4.0 0.00 0.00 0.00 52 1013.2
20260906152057 89 158 1.0 5.0 0.00 0.00 0.00 52 1013.2
20260906151601 89 155 0.0 4.0 0.00 0.00 0.00 52 1013.2
20260906150556 89 196 1.0 4.0 0.00 0.00 0.00 53 1013.2
20260906150109 89 174 0.0 4.0 0.00 0.00 0.00 54 1013.1
20260906145553 88 198 0.0 3.0 0.00 0.00 0.00 54 1013.1
20260906145051 87 200 0.0 2.0 0.00 0.00 0.00 55 1013.1
20260906144549 87 144 0.0 2.0 0.00 0.00 0.00 56 1013.1
20260906144046 86 25 0.0 2.0 0.00 0.00 0.00 56 1013.2
20260906143545 85 212 0.0 3.0 0.00 0.00 0.00 57 1013.1
20260906143050 84 308 0.0 3.0 0.00 0.00 0.00 57 1013.3
20260906142543 84 166 1.0 3.0 0.00 0.00 0.00 58 1013.3
20260906142042 84 138 0.0 5.0 0.00 0.00 0.00 58 1013.4
20260906141546 83 257 0.0 2.0 0.00 0.00 0.00 58 1013.3
20260906140540 83 263 0.0 1.0 0.00 0.00 0.00 59 1013.1
20260906140049 82 278 0.0 2.0 0.00 0.00 0.00 59 1013.1
20260906135541 82 196 0.0 3.0 0.00 0.00 0.00 60 1013.0
20260906135040 81 155 0.0 3.0 0.00 0.00 0.00 60 1013.0
20260906134537 81 200 0.0 2.0 0.00 0.00 0.00 61 1013.0
20260906134039 81 150 0.0 2.0 0.00 0.00 0.00 61 1013.0
20260906133539 81 196 0.0 2.0 0.00 0.00 0.00 61 1013.1
20260906133051 81 214 0.0 1.0 0.00 0.00 0.00 62 1013.0
20260906132538 80 9 0.0 1.0 0.00 0.00 0.00 62 1013.0
20260906132037 80 11 0.0 1.0 0.00 0.00 0.00 62 1013.1
20260906131534 80 197 0.0 0.0 0.00 0.00 0.00 63 1013.1
20260906130532 79 197 0.0 0.0 0.00 0.00 0.00 63 1013.0
20260906130032 79 197 0.0 0.0 0.00 0.00 0.00 63 1013.0
20260906125530 79 198 0.0 0.0 0.00 0.00 0.00 63 1012.8
20260906125029 79 198 0.0 0.0 0.00 0.00 0.00 63 1012.7
20260906124528 79 198 0.0 0.0 0.00 0.00 0.00 63 1012.8
20260906124030 79 163 0.0 0.0 0.00 0.00 0.00 64 1012.9
20260906123526 79 162 0.0 0.0 0.00 0.00 0.00 64 1012.7
20260906123025 79 162 0.0 0.0 0.00 0.00 0.00 64 1012.6
20260906122524 78 162 0.0 0.0 0.00 0.00 0.00 64 1012.6
20260906122025 78 162 0.0 0.0 0.00 0.00 0.00 64 1012.5
20260906121522 78 170 0.0 2.0 0.00 0.00 0.00 64 1012.6
20260906120524 78 143 0.0 2.0 0.00 0.00 0.00 64 1012.4
20260906120025 78 338 0.0 0.0 0.00 0.00 0.00 64 1012.4
20260906115521 78 338 0.0 1.0 0.00 0.00 0.00 64 1012.4
20260906115020 78 338 0.0 1.0 0.00 0.00 0.00 64 1012.5
20260906114535 79 338 0.0 0.0 0.00 0.00 0.00 64 1012.4
20260906114017 79 338 0.0 0.0 0.00 0.00 0.00 64 1012.3
20260906113516 79 338 0.0 0.0 0.00 0.00 0.00 64 1012.3
20260906113020 79 338 0.0 0.0 0.00 0.00 0.00 64 1012.1
20260906112513 79 338 0.0 0.0 0.00 0.00 0.00 64 1012.1
20260906112013 79 338 0.0 0.0 0.00 0.00 0.00 64 1012.2
20260906111513 79 338 0.0 0.0 0.00 0.00 0.00 65 1012.1
20260906110513 79 357 0.0 0.0 0.00 0.00 0.00 65 1012.2
20260906110015 79 357 0.0 1.0 0.00 0.00 0.00 65 1012.1
20260906105516 79 358 0.0 1.0 0.00 0.00 0.00 65 1012.1
20260906105011 79 204 0.0 0.0 0.00 0.00 0.00 65 1012.0
20260906104517 79 201 0.0 0.0 0.00 0.00 0.00 65 1012.0
20260906104009 79 201 0.0 0.0 0.00 0.00 0.00 64 1011.9
20260906103507 79 201 0.0 0.0 0.00 0.00 0.00 64 1012.0
20260906103007 79 201 0.0 0.0 0.00 0.00 0.00 64 1012.0
20260906102506 80 201 0.0 0.0 0.00 0.00 0.00 64 1012.0
20260906102005 80 201 0.0 0.0 0.00 0.00 0.00 64 1011.8
20260906101511 80 201 0.0 0.0 0.00 0.00 0.00 64 1011.8
20260906100504 80 201 0.0 0.0 0.00 0.00 0.00 64 1011.8
20260906100059 80 202 0.0 0.0 0.00 0.00 0.00 64 1011.8
20260906095558 80 201 0.0 0.0 0.00 0.00 0.00 64 1011.9
20260906095057 80 201 0.0 0.0 0.00 0.00 0.00 64 1011.7
20260906094557 80 201 0.0 0.0 0.00 0.00 0.00 63 1011.7
20260906094055 80 201 0.0 0.0 0.00 0.00 0.00 63 1011.6
20260906093657 81 201 0.0 0.0 0.00 0.00 0.00 63 1011.5
20260906093054 81 202 0.0 0.0 0.00 0.00 0.00 63 1011.4
20260906092553 81 201 0.0 0.0 0.00 0.00 0.00 62 1011.4
20260906092053 81 201 0.0 0.0 0.00 0.00 0.00 62 1011.3
20260906091551 81 203 0.0 1.0 0.00 0.00 0.00 62 1011.3
20260906090556 81 221 0.0 0.0 0.00 0.00 0.00 62 1011.3
20260906090058 81 125 0.0 2.0 0.00 0.00 0.00 62 1011.2
20260906085556 81 120 0.0 2.0 0.00 0.00 0.00 62 1011.2
20260906085054 81 205 0.0 1.0 0.00 0.00 0.00 62 1011.2
20260906084654 82 158 0.0 1.0 0.00 0.00 0.00 62 1011.2
20260906084052 82 164 0.0 2.0 0.00 0.00 0.00 62 1011.2
20260906083554 82 98 0.0 2.0 0.00 0.00 0.00 61 1011.2
20260906083053 82 157 0.0 2.0 0.00 0.00 0.00 61 1011.2
20260906082550 82 100 0.0 2.0 0.00 0.00 0.00 61 1011.2
20260906082049 82 200 0.0 2.0 0.00 0.00 0.00 61 1011.2
20260906081549 82 209 0.0 3.0 0.00 0.00 0.00 61 1011.2
20260906080543 82 134 0.0 3.0 0.00 0.00 0.00 61 1011.3
20260906080041 82 144 0.0 1.0 0.00 0.00 0.00 60 1011.3
20260906075541 82 250 0.0 1.0 0.00 0.00 0.00 60 1011.4
20260906075040 82 162 0.0 0.0 0.00 0.00 0.00 60 1011.4
20260906074540 82 143 0.0 2.0 0.00 0.00 0.00 60 1011.4
20260906074043 82 153 0.0 1.0 0.00 0.00 0.00 60 1011.4
20260906073539 82 158 0.0 3.0 0.00 0.00 0.00 60 1011.4
20260906073037 82 159 0.0 3.0 0.00 0.00 0.00 60 1011.3
20260906072537 82 131 0.0 1.0 0.00 0.00 0.00 60 1011.4
20260906072034 82 139 0.0 1.0 0.00 0.00 0.00 59 1011.3
20260906071534 83 108 0.0 0.0 0.00 0.00 0.00 59 1011.3
20260906070533 83 146 0.0 0.0 0.00 0.00 0.00 58 1011.5
20260906070032 83 146 0.0 0.0 0.00 0.00 0.00 58 1011.5
20260906065530 83 146 0.0 0.0 0.00 0.00 0.00 57 1011.5
20260906065030 83 138 0.0 1.0 0.00 0.00 0.00 57 1011.6
20260906064529 83 129 0.0 2.0 0.00 0.00 0.00 57 1011.7
20260906064033 83 140 0.0 2.0 0.00 0.00 0.00 57 1011.7
20260906063526 84 203 0.0 1.0 0.00 0.00 0.00 56 1011.7
20260906063027 84 155 0.0 2.0 0.00 0.00 0.00 56 1011.6
20260906062524 84 176 0.0 2.0 0.00 0.00 0.00 56 1011.5
20260906062027 84 101 0.0 2.0 0.00 0.00 0.00 56 1011.5
20260906061523 84 216 0.0 2.0 0.00 0.00 0.00 55 1011.6
20260906060524 84 220 0.0 2.0 0.00 0.00 0.00 54 1011.6
20260906060027 84 141 0.0 2.0 0.00 0.00 0.00 54 1011.6
20260906055522 85 146 0.0 3.0 0.00 0.00 0.00 54 1011.5
20260906055022 85 136 0.0 3.0 0.00 0.00 0.00 53 1011.6
20260906054536 85 254 0.0 2.0 0.00 0.00 0.00 53 1011.5
20260906054020 85 88 0.0 2.0 0.00 0.00 0.00 52 1011.6
20260906053518 85 51 0.0 3.0 0.00 0.00 0.00 52 1011.6
20260906053018 85 162 0.0 3.0 0.00 0.00 0.00 52 1011.6
20260906052517 85 117 0.0 2.0 0.00 0.00 0.00 52 1011.6
20260906052017 85 111 0.0 2.0 0.00 0.00 0.00 52 1011.7
20260906051514 85 153 0.0 2.0 0.00 0.00 0.00 51 1011.5
20260906050511 85 224 0.0 1.0 0.00 0.00 0.00 51 1011.4
20260906050011 85 224 0.0 3.0 0.00 0.00 0.00 51 1011.5
20260906045509 86 143 0.0 3.0 0.00 0.00 0.00 51 1011.5
20260906045008 86 124 0.0 3.0 0.00 0.00 0.00 52 1011.5
20260906044507 86 158 0.0 3.0 0.00 0.00 0.00 52 1011.5
20260906044008 86 212 0.0 4.0 0.00 0.00 0.00 52 1011.6
20260906043506 86 128 0.0 4.0 0.00 0.00 0.00 52 1011.6
20260906043106 86 203 0.0 7.0 0.00 0.00 0.00 52 1011.6
20260906042505 86 101 1.0 7.0 0.00 0.00 0.00 52 1011.5
20260906042005 86 147 0.0 5.0 0.00 0.00 0.00 51 1011.6
20260906041504 86 167 0.0 5.0 0.00 0.00 0.00 51 1011.7
20260906040508 87 131 0.0 4.0 0.00 0.00 0.00 50 1011.6
20260906040011 87 224 0.0 3.0 0.00 0.00 0.00 50 1011.5
20260906035506 87 106 0.0 3.0 0.00 0.00 0.00 50 1011.5
20260906035007 87 153 0.0 3.0 0.00 0.00 0.00 50 1011.6
20260906034512 87 145 0.0 3.0 0.00 0.00 0.00 50 1011.5
20260906034005 87 144 0.0 2.0 0.00 0.00 0.00 50 1011.5
20260906033505 87 141 0.0 3.0 0.00 0.00 0.00 50 1011.6
20260906033014 87 136 0.0 3.0 0.00 0.00 0.00 50 1011.5
20260906032503 87 137 0.0 2.0 0.00 0.00 0.00 50 1011.6
20260906032003 87 117 0.0 2.0 0.00 0.00 0.00 50 1011.6
20260906031505 87 167 0.0 5.0 0.00 0.00 0.00 50 1011.6
20260906030600 87 155 0.0 5.0 0.00 0.00 0.00 50 1011.5
20260906025557 87 93 0.0 5.0 0.00 0.00 0.00 49 1011.6
20260906025057 88 180 1.0 5.0 0.00 0.00 0.00 49 1011.7
20260906024611 88 181 0.0 5.0 0.00 0.00 0.00 48 1011.6
20260906024055 88 147 0.0 5.0 0.00 0.00 0.00 48 1011.4
20260906023558 88 160 0.0 6.0 0.00 0.00 0.00 48 1011.4
20260906023102 88 103 1.0 5.0 0.00 0.00 0.00 48 1011.2
20260906022555 88 134 0.0 5.0 0.00 0.00 0.00 48 1011.3
20260906022055 88 137 0.0 5.0 0.00 0.00 0.00 47 1011.2
20260906021556 88 132 0.0 3.0 0.00 0.00 0.00 47 1010.9
20260906021155 88 126 0.0 3.0 0.00 0.00 0.00 47 1010.9
20260906020556 88 158 0.0 3.0 0.00 0.00 0.00 47 1010.9
20260906020056 88 82 0.0 7.0 0.00 0.00 0.00 47 1010.7
20260906015555 88 96 1.0 7.0 0.00 0.00 0.00 47 1010.7
20260906015055 88 210 0.0 6.0 0.00 0.00 0.00 46 1010.7
20260906014555 89 137 2.0 7.0 0.00 0.00 0.00 46 1010.7
20260906014056 89 187 1.0 6.0 0.00 0.00 0.00 46 1010.7
20260906013656 89 174 3.0 6.0 0.00 0.00 0.00 46 1010.6
20260906013056 89 146 1.0 9.0 0.00 0.00 0.00 46 1010.4
20260906012553 89 165 0.0 10.0 0.00 0.00 0.00 45 1010.3
20260906012055 90 193 1.0 10.0 0.00 0.00 0.00 45 1010.2
20260906011551 92 134 2.0 12.0 0.00 0.00 0.00 41 1010.2
20260906011152 92 134 2.0 12.0 0.00 0.00 0.00 41 1009.9
20260906010550 92 150 2.0 12.0 0.00 0.00 0.00 41 1009.7
20260906010049 93 134 4.0 12.0 0.00 0.00 0.00 40 1009.8
20260906005552 93 177 4.0 11.0 0.00 0.00 0.00 39 1009.8
20260906005048 94 159 2.0 10.0 0.00 0.00 0.00 39 1009.6
20260906004549 94 221 2.0 10.0 0.00 0.00 0.00 38 1009.6
20260906004049 95 133 2.0 9.0 0.00 0.00 0.00 37 1009.5
20260906003547 95 186 3.0 9.0 0.00 0.00 0.00 36 1009.6
20260906003046 96 154 3.0 6.0 0.00 0.00 0.00 34 1009.4
20260906002550 96 139 2.0 6.0 0.00 0.00 0.00 33 1009.4
20260906002045 96 37 1.0 7.0 0.00 0.00 0.00 33 1009.5
20260906001545 96 192 2.0 7.0 0.00 0.00 0.00 33 1009.6
20260906001144 96 23 0.0 6.0 0.00 0.00 0.00 33 1009.4
20260906000544 96 202 2.0 6.0 0.00 0.00 0.00 32 1009.4
20260906000043 96 156 2.0 7.0 0.00 0.00 0.00 32 1009.4
20260905235545 96 179 1.0 7.0 0.00 0.00 0.00 32 1009.4
20260905235042 97 250 1.0 8.0 0.00 0.00 0.00 32 1009.3
20260905234541 97 139 1.0 8.0 0.00 0.00 0.00 31 1009.3
20260905234041 97 154 1.0 6.0 0.00 0.00 0.00 31 1009.2
20260905233640 97 200 1.0 6.0 0.00 0.00 0.00 31 1009.2
20260905233047 97 193 0.0 5.0 0.00 0.00 0.00 31 1009.3
20260905232539 97 15 0.0 6.0 0.00 0.00 0.00 30 1009.3
20260905232038 97 155 1.0 7.0 0.00 0.00 0.00 30 1009.3
20260905231540 97 202 2.0 7.0 0.00 0.00 0.00 30 1009.4
20260905231137 98 120 0.0 5.0 0.00 0.00 0.00 30 1009.3